User: anonymous   Login
Location: Poughquag
(41.6090°N, 73.6820°W)
Time: 07:22:46
(UTC-04:00)
Language:

Falcon 9 debris - Orbit

View from above orbital plane
View from above orbital plane
View from above satellite
View from above satellite

Ground track
Ground track

The orbit data is extracted from the following two-line orbital elements,

1 44298U 19029BR  19196.87140442 +.00001187 +00000-0 +35222-4 0  9999
2 44298 053.0034 284.2958 0006206 088.0736 272.0979 15.43605456009383
Epoch (UTC): 15 July 2019 20:54:49
Eccentricity: 0.0006206
inclination: 53.0034°
perigee height: 431 km
apogee height: 440 km
right ascension of ascending node: 284.2958°
argument of perigee: 88.0736°
revolutions per day: 15.43605456
mean anomaly at epoch: 272.0979°
orbit number at epoch: 938

The dashed part of the orbit path shows where the satellite is in the earth's shadow,  

DLR